Вернуться в каталог

TIANQI 34

АктивенСвязьLEO
NORAD 62366·PAYLOAD·🇨🇳 China

Запущен Dec 19, 2024 с Yellow Sea Launch Area

Loading…

Ближайшие Пролёты (ближайшие 24 часа)

TLE

СвежийSource: Space-Track

Эпоха: Sep 14, 2026, 13:01 UTC

1 62366U 24245B   26257.54293091 -.00000012  00000-0  80048-4 0  9993
2 62366  44.9800 284.0927 0002521  85.8274 274.2847 13.99243591 88844

Отслеживайте TIANQI 34 в реальном времени с AllMySat

Download on the App Store